Location: Buckland
(65.9785°N, 161.1281°W)
Time: 05:51:03
(UTC+00:00)

Transit 2A Rocket - Pass Details

Date: 27 November 2020
Orbit: 592 x 910 km, 66.7° (Epoch: 21 January)

Event Time Altitude Azimuth Distance (km) Brightness Sun altitude
Exits shadow 15:01:50 61° 148° (SSE) 917 5.3 -28.5°
Maximum altitude 15:01:52 61° 146° (SE) 916 5.3 -28.5°
Drops below altitude 10° 15:07:03 10° 67° (ENE) 2,286 8.4 -28.0°
Sets 15:09:21 0° 64° (ENE) 3,162 9.3 -27.8°
